Malin Head, Ireland

1:41 PM GMT on March 23, 2019 (GMT +0000)
Malin Head

Weather History for 03980 - December, 2014

Change the Weather History Date:

Sunday, December 21, 2014

  Actual Average Record
Temperature  
Mean Temperature 48 °F -  
Max Temperature 52 °F 46 °F - ()
Min Temperature 44 °F 39 °F - ()
Degree Days  
Heating Degree Days 17    
Moisture  
Dew Point 48 °F    
Average Humidity 89    
Maximum Humidity 94    
Minimum Humidity 82    
Precipitation  
Precipitation 0.12 in 0.15 in - ()
Sea Level Pressure  
Sea Level Pressure 29.86 in    
Wind  
Wind Speed 25 mph ()    
Max Wind Speed 36 mph    
Max Gust Speed -    
Visibility 9.2 miles    
Events Rain    
T = Trace of Precipitation, MM = Missing Value Source: Averaged Metar Reports

Daily Weather History Graph

Daily Weather History Graph

Search for Another Location

Airport or City:

Astronomy

Dec. 21, 2014 Rise Set
Actual Time 8:54 AM GMT 4:00 PM GMT
Civil Twilight 8:08 AM GMT 4:46 PM GMT
Nautical Twilight 7:20 AM GMT 5:34 PM GMT
Astronomical Twilight 6:35 AM GMT 6:19 PM GMT
Moon 7:43 AM GMT (12/21) 4:06 PM GMT (12/21)
Length of Visible Light 8h 37m
Length of Day
7h 05m
Waning Crescent, 0% of the Moon is Illuminated
Dec 21
Waning Crescent
Dec 22
New
Dec 28
First Quarter
Jan 5
Full
Jan 13
Last Quarter

Hourly Weather History & Observations

Time (GMT) Temp. Dew Point Humidity Pressure Visibility Wind Dir Wind Speed Gust Speed Precip Events Conditions
12:00 AM 46 °F 42 °F 83% 30.14 in 17 mi SW 24.6 mph - -   Partly Cloudy
1:00 AM 46 °F 43 °F 86% 30.10 in 19 mi SW 29.1 mph - -   Mostly Cloudy
2:00 AM 47 °F 44 °F 83% 30.08 in 17 mi SW 26.8 mph - -   Overcast
3:00 AM 47 °F 44 °F 86% 30.04 in 12 mi SSW 24.6 mph - -   Overcast
4:00 AM 47 °F 44 °F 87% 30.01 in 6 mi SSW 20.1 mph - -   Overcast
5:00 AM 49 °F 46 °F 83% 29.96 in 12 mi SW 33.6 mph - -   Mostly Cloudy
6:00 AM 50 °F 46 °F 82% 29.94 in 19 mi SW 31.3 mph - -   Overcast
7:00 AM 50 °F 47 °F 87% 29.91 in 8 mi SW 26.8 mph - - Rain Drizzle
8:00 AM 51 °F 48 °F 86% 29.90 in 12 mi SW 29.1 mph - - Rain Light Rain Showers
9:00 AM 50 °F 49 °F 93% 29.89 in 2 mi WSW 26.8 mph - - Rain Drizzle
10:00 AM 51 °F 49 °F 91% 29.87 in 10 mi SW 29.1 mph - - Rain Drizzle
11:00 AM 51 °F 49 °F 91% 29.86 in 11 mi SW 29.1 mph - -   Overcast
12:00 PM 52 °F 49 °F 88% 29.84 in 15 mi WSW 26.8 mph - - Rain Drizzle
1:00 PM 52 °F 49 °F 87% 29.81 in 2 mi WSW 31.3 mph - -   Mist
2:00 PM 52 °F 50 °F 89% 29.78 in 9 mi WSW 31.3 mph - - Rain Drizzle
3:00 PM 52 °F 50 °F 89% 29.76 in 9 mi WSW 33.6 mph - -   Partly Cloudy
4:00 PM 52 °F 49 °F 88% 29.75 in 5 mi WSW 31.3 mph - - Rain Drizzle
5:00 PM 51 °F 50 °F 94% 29.74 in 3 mi WSW 29.1 mph - - Rain Drizzle
6:00 PM 52 °F 51 °F 94% 29.73 in 10 mi WSW 29.1 mph - - Rain Drizzle
7:00 PM 52 °F 51 °F 94% 29.71 in 6 mi WSW 31.3 mph - - Rain Light Rain
8:00 PM 52 °F 51 °F 94% 29.70 in 4 mi WSW 35.8 mph - - Rain Drizzle
9:00 PM 52 °F 50 °F 92% 29.70 in 5 mi WSW 33.6 mph - - Rain Drizzle
10:00 PM 52 °F 50 °F 92% 29.68 in 5 mi WSW 31.3 mph - - Rain Light Rain Showers
11:00 PM 51 °F 49 °F 91% 29.68 in 2 mi West 29.1 mph - - Rain Rain